CW0630 Weather Reports


Display with metric or nautical units.
time (UTC)temp
F
wind
direction
speed
MPH
gust
MPH
rain 1hr
in
rain 24hr
in
rain mn
in
humidity
%
barometer
mb
20190825131023 70 29 6.0 11.0 0.00 0.00 0.00 76 1022.4
20190825121015 66 59 3.0 8.0 0.00 0.00 0.00 84 1022.3
20190825111028 62 9 3.0 8.0 0.00 0.00 0.00 90 1022.0
20190825101025 64 7 3.0 8.0 0.00 0.00 0.00 88 1021.6
20190825091017 65 24 3.0 8.0 0.00 0.00 0.00 86 1021.4
20190825081027 65 352 2.0 5.0 0.00 0.00 0.00 85 1021.5
20190825071022 66 357 3.0 5.0 0.00 0.00 0.00 85 1021.5
20190825061028 66 357 3.0 4.0 0.00 0.02 0.00 86 1021.9
20190825051024 66 352 3.0 4.0 0.00 0.02 0.00 86 1022.4
20190825041013 66 39 3.0 5.0 0.00 0.02 0.00 83 1022.3
20190825031024 67 21 3.0 5.0 0.00 0.02 0.02 80 1022.4
20190825021016 66 2 2.0 6.0 0.00 0.02 0.02 78 1022.0
20190825011027 66 346 1.0 3.0 0.00 0.02 0.02 80 1021.7
20190825001016 68 6 1.0 3.0 0.00 0.02 0.02 76 1021.1
20190824231012 74 39 4.0 6.0 0.00 0.02 0.02 61 1020.8
20190824221023 75 337 4.0 9.0 0.00 0.03 0.02 57 1020.6
20190824211020 77 345 3.0 8.0 0.00 0.10 0.02 55 1020.6
20190824201028 77 23 4.0 11.0 0.00 0.10 0.02 55 1020.9
20190824191019 78 357 3.0 10.0 0.00 0.10 0.02 56 1021.2
20190824181026 77 10 6.0 12.0 0.00 0.10 0.02 56 1021.5
20190824171019 75 57 2.0 5.0 0.00 0.10 0.02 67 1021.7
20190824161028 72 17 5.0 10.0 0.00 0.10 0.02 76 1022.0
20190824151016 71 40 4.0 10.0 0.00 0.15 0.02 81 1022.1
20190824141029 68 352 3.0 8.0 0.00 0.15 0.02 87 1022.0